CAPE
617 537 483 88 29 1 0 0 0 0 0 0 0 0 0 0 0 0 0 0 0 0 0 17 9 2 0 0 0 0 0 0 0 0 0 0 0 0 0 0 0 0 0
625 614 229 57 5 12 10 1 0 0 0 0 0 0 0 0 0 0 0 0 0 0 0 0 1 2 0 0 0 0 0 1 0 0 0 0 0 0 0 0 0 0 0
492 412 194 165 38 2 0 0 0 0 0 0 0 0 0 0 0 0 0 0 0 0 0 0 0 0 0 0 0 1 6 15 19 6 0 0 0 0 0 0 0 0 0
457 452 273 106 0 0 0 0 0 0 0 0 0 0 0 0 0 0 0 0 0 0 0 0 0 0 0 0 0 0 5 9 19 23 13 24 10 3 0 0 0 0 0
430 328 197 5 0 0 0 0 0 0 0 0 0 0 0 0 0 0 0 0 0 0 0 0 0 0 0 0 0 0 0 0 1 20 38 50 44 54 51 17 9 1 0
361 268 98 0 0 0 0 0 0 0 0 0 0 0 0 0 0 0 0 0 0 0 0 0 0 0 0 0 0 0 0 0 1 6 17 24 17 9 7 20 60 44 6
310 231 45 3 0 0 0 0 0 0 0 0 0 0 0 0 0 0 0 0 0 0 0 0 0 0 0 0 0 0 0 0 0 1 3 0 0 3 1 3 31 56 47
3 175 37 0 0 0 0 0 0 0 0 0 0 0 0 0 0 0 0 0 0 0 0 0 0 0 0 0 0 0 0 0 0 0 0 0 0 0 2 4 7 51 69
82 57 0 0 0 0 0 0 0 0 4 2 0 0 0 0 0 0 0 0 0 0 1 0 1 3 2 1 1 5 0 0 0 0 0 0 0 0 2 9 26 43 88
0 0 0 0 0 0 0 0 0 0 0 2 10 0 0 0 0 0 0 0 0 11 14 1 1 3 4 1 1 0 0 0 0 0 0 0 0 2 17 34 46 53 64
0 0 0 0 0 0 0 1 0 0 0 0 0 0 0 0 0 0 0 0 1 0 0 0 1 0 4 1 3 0 0 0 0 0 0 0 0 0 11 31 61 95 117
0 0 0 0 0 0 0 0 0 0 0 0 0 0 0 0 0 0 0 1 0 0 0 0 0 4 4 7 1 0 0 0 0 0 0 0 0 0 0 2 26 67 112
0 6 1 9 6 0 0 0 0 0 0 0 0 0 0 0 0 0 0 0 0 0 0 0 0 4 1 6 5 0 0 0 0 0 0 0 0 0 0 0 0 5 13
13 15 8 16 5 0 0 0 0 0 0 0 0 0 0 0 1 0 0 0 0 0 0 0 1 9 15 20 1 0 0 9 0 0 0 0 0 0 0 0 1 5 10
10 7 21 10 3 0 0 0 0 0 0 0 1 4 5 3 2 1 3 3 5 7 0 0 1 7 23 23 8 2 18 52 0 0 0 0 0 0 0 0 3 8 11
20 13 10 1 0 0 0 0 0 0 0 3 5 9 14 11 6 3 5 12 11 14 18 1 4 32 39 9 26 3 15 33 6 3 1 0 0 0 0 0 0 1 5
0 0 0 0 0 0 0 0 0 0 1 12 8 12 14 8 7 7 11 13 16 30 43 27 29 38 45 64 66 48 44 29 67 30 12 0 0 0 0 0 0 0 2
0 0 0 2 5 0 0 0 5 0 3 6 11 16 6 4 13 13 23 24 29 44 62 60 39 47 76 61 70 74 7 13 52 14 10 0 0 0 0 0 0 0 0
0 3 0 0 0 0 3 1 1 3 5 8 9 2 1 3 10 21 30 33 45 21 54 69 67 78 66 47 77 47 46 76 34 30 18 0 0 0 0 0 0 0 0
0 0 0 0 0 1 0 0 1 2 2 1 0 0 0 0 3 14 19 44 42 67 64 69 70 47 25 34 78 75 75 78 42 13 2 3 6 9 3 1 0 0 0
0 0 0 0 0 0 0 2 0 0 0 0 0 0 0 0 0 1 5 15 30 27 49 62 52 43 54 62 80 82 69 70 60 18 16 50 39 18 19 22 22 28 5
0 0 0 0 0 4 0 0 0 0 0 0 0 0 0 0 0 0 0 0 0 23 55 51 63 55 64 109 96 64 54 40 41 47 40 57 30 20 27 27 5 0 0
0 0 0 3 2 0 0 0 0 0 0 0 0 0 0 0 4 22 26 0 0 0 0 49 57 44 82 87 41 20 20 37 41 24 40 32 33 53 42 12 32 4 4
1 7 1 0 0 0 0 0 0 0 0 0 0 1 15 26 37 31 58 68 69 58 37 8 7 22 57 49 32 27 21 11 14 11 21 60 56 57 58 44 21 41 29
0 0 0 0 0 0 0 0 0 0 2 1 3 2 5 14 3 0 16 62 50 52 27 0 0 2 0 0 0 2 25 48 51 30 39 44 57 27 36 31 49 1 0
0 0 0 0 0 0 0 0 0 0 0 3 0 0 0 0 0 0 17 47 53 8 6 14 39 1 0 0 0 0 2 26 29 38 28 58 26 25 23 29 21 38 53
CIN
-5 -2 -0 -10 -15 -13 -0 -0 -0 -0 -0 -0 -0 -0 -0 -0 -0 -0 -0 -0 -0 -0 -0 -0 -0 -0 -0 -0 -0 -0 -0 -0 -0 -0 -0 -0 -0 -0 -0 -0 -0 -0 -0
-8 -1 -5 -26 -48 -17 -5 -0 -0 -0 -0 -0 -0 -0 -0 -0 -0 -0 -0 -0 -0 -0 -0 -0 -0 -0 -0 -0 -0 -0 -0 -0 -0 -0 -0 -0 -0 -0 -0 -0 -0 -0 -0
-0 -8 -21 -15 -8 -0 -0 -0 -0 -0 -0 -0 -0 -0 -0 -0 -0 -0 -0 -0 -0 -0 -0 -0 -0 -0 -0 -0 -0 -0 -0 -2 -0 -0 -0 -0 -0 -0 -0 -0 -0 -0 -0
-11 -7 -2 -0 -0 -0 -0 -0 -0 -0 -0 -0 -0 -0 -0 -0 -0 -0 -0 -0 -0 -0 -0 -0 -0 -0 -0 -0 -0 -0 -0 -0 -0 -0 -0 -0 -0 -0 -0 -0 -0 -0 -0
-5 -0 -0 -8 -0 -0 -0 -0 -0 -0 -0 -0 -0 -0 -0 -0 -0 -0 -0 -0 -0 -0 -0 -0 -0 -0 -0 -0 -0 -0 -0 -0 -0 -0 -0 -1 -0 -0 -0 -0 -0 -0 -0
-4 -1 -2 -0 -0 -0 -0 -0 -0 -0 -0 -0 -0 -0 -0 -0 -0 -0 -0 -0 -0 -0 -0 -0 -0 -0 -0 -0 -0 -0 -0 -0 -0 -0 -0 -0 -0 -0 -0 -0 -0 -0 -0
-3 -0 -4 -20 -0 -0 -0 -0 -0 -0 -0 -0 -0 -0 -0 -0 -0 -0 -0 -0 -0 -0 -0 -0 -0 -0 -0 -0 -0 -0 -0 -0 -0 -0 -0 -0 -0 -0 -0 -0 -0 -0 -0
-82 -2 -8 -0 -0 -0 -0 -0 -0 -0 -0 -0 -0 -0 -0 -0 -0 -0 -0 -0 -0 -0 -0 -0 -0 -0 -0 -0 -0 -0 -0 -0 -0 -0 -0 -0 -0 -0 -0 -0 -0 -0 -0
-18 -14 -0 -0 -0 -0 -0 -0 -0 -0 -0 -0 -0 -0 -0 -0 -0 -0 -0 -0 -0 -0 -0 -0 -0 -0 -0 -0 -0 -3 -0 -0 -0 -0 -0 -0 -0 -0 -0 -0 -0 -0 -0
-0 -0 -0 -0 -0 -0 -0 -0 -0 -0 -0 -0 -3 -0 -0 -0 -0 -0 -0 -0 -0 -3 -0 -0 -0 -0 -0 -0 -1 -0 -0 -0 -0 -0 -0 -0 -0 -0 -0 -0 -0 -0 -0
-0 -0 -0 -0 -0 -0 -0 -0 -0 -0 -0 -0 -0 -0 -0 -0 -0 -0 -0 -0 -0 -0 -0 -0 -0 -0 -0 -0 -0 -0 -0 -0 -0 -0 -0 -0 -0 -0 -0 -0 -0 -0 -0
-0 -0 -0 -0 -0 -0 -0 -0 -0 -0 -0 -0 -0 -0 -0 -0 -0 -0 -0 -0 -0 -0 -0 -0 -0 -0 -0 -0 -1 -0 -0 -0 -0 -0 -0 -0 -0 -0 -0 -0 -0 -0 -0
-0 -0 -0 -0 -0 -0 -0 -0 -0 -0 -0 -0 -0 -0 -0 -0 -0 -0 -0 -0 -0 -0 -0 -0 -0 -0 -0 -0 -0 -0 -0 -0 -0 -0 -0 -0 -0 -0 -0 -0 -0 -0 -0
-0 -0 -0 -0 -0 -0 -0 -0 -0 -0 -0 -0 -0 -0 -0 -0 -0 -0 -0 -0 -0 -0 -0 -0 -0 -0 -0 -0 -0 -0 -0 -16 -0 -0 -0 -0 -0 -0 -0 -0 -0 -0 -0
-0 -2 -0 -0 -2 -0 -0 -0 -0 -0 -0 -0 -0 -0 -0 -0 -0 -0 -0 -0 -0 -0 -0 -0 -0 -0 -0 -0 -0 -2 -0 -3 -0 -0 -0 -0 -0 -0 -0 -0 -0 -0 -0
-13 -6 -1 -2 -0 -0 -0 -0 -0 -0 -0 -0 -0 -0 -0 -0 -0 -0 -0 -0 -0 -0 -0 -0 -0 -0 -0 -0 -3 -5 -0 -8 -19 -8 -13 -0 -0 -0 -0 -0 -0 -0 -0
-0 -0 -0 -0 -0 -0 -0 -0 -0 -0 -0 -0 -0 -0 -0 -0 -0 -0 -0 -0 -0 -0 -0 -0 -0 -0 -0 -0 -0 -0 -0 -0 -0 -21 -33 -0 -0 -0 -0 -0 -0 -0 -0
-0 -0 -0 -0 -0 -1 -0 -0 -0 -0 -0 -0 -0 -0 -0 -0 -0 -0 -0 -0 -0 -0 -0 -0 -0 -0 -0 -0 -3 -0 -0 -0 -0 -5 -22 -0 -0 -0 -0 -0 -0 -0 -0
-0 -0 -0 -0 -0 -0 -0 -0 -0 -0 -0 -0 -0 -0 -0 -0 -0 -0 -0 -0 -0 -0 -0 -0 -0 -0 -0 -0 -0 -0 -0 -0 -0 -5 -32 -15 -0 -0 -0 -0 -0 -0 -0
-0 -0 -0 -0 -0 -0 -0 -0 -0 -0 -0 -0 -0 -0 -0 -0 -0 -0 -0 -0 -0 -0 -0 -0 -0 -0 -0 -0 -0 -0 -0 -0 -0 -0 -5 -28 -20 -8 -3 -9 -0 -0 -0
-0 -0 -0 -0 -0 -0 -0 -0 -0 -0 -0 -0 -0 -0 -0 -0 -0 -0 -0 -0 -0 -0 -0 -0 -0 -0 -0 -0 -0 -0 -0 -0 -0 -0 -0 -0 -0 -0 -0 -3 -10 -16 -2
-0 -0 -0 -0 -0 -0 -0 -0 -0 -0 -0 -0 -0 -0 -0 -0 -0 -0 -0 -0 -2 -2 -0 -0 -0 -0 -0 -0 -0 -0 -0 -0 -0 -0 -0 -0 -0 -0 -0 -0 -4 -0 -0
-0 -0 -0 -0 -0 -0 -0 -0 -0 -0 -0 -0 -0 -0 -0 -0 -0 -0 -7 -0 -0 -0 -0 -0 -0 -0 -0 -0 -0 -0 -0 -0 -0 -0 -0 -0 -0 -0 -0 -0 -4 -19 -19
-0 -0 -0 -0 -0 -0 -0 -0 -0 -0 -0 -0 -0 -0 -0 -0 -0 -9 -0 -0 -0 -1 -3 -6 -0 -0 -0 -0 -0 -0 -0 -0 -0 -0 -0 -0 -0 -0 -0 -0 -2 -2 -2
-0 -0 -0 -0 -0 -0 -0 -0 -0 -0 -0 -0 -0 -0 -0 -0 -0 -0 -11 -0 -0 -0 -1 -0 -4 -15 -0 -0 -0 -1 -0 -0 -0 -0 -0 -0 -0 -0 -0 -0 -0 -8 -0
-0 -0 -0 -0 -0 -0 -0 -0 -0 -0 -0 -0 -0 -0 -0 -0 -0 -0 -2 -0 -0 -12 -3 -8 -0 -0 -0 -0 -0 -0 -0 -0 -0 -0 -0 -0 -0 -0 -0 -0 -0 -0 -0
Wind_Speed
5 6 7 8 6 6 7 6 6 5 5 4 4 4 4 4 4 4 7 11 11 11 5 4 4 5 4 5 5 5 5 7 8 9 7 7 8 9 9 11 12 13 13
5 7 6 6 8 8 7 6 5 5 4 4 4 3 4 4 5 5 3 8 10 11 11 8 3 1 1 1 1 3 5 4 6 6 4 5 6 8 7 9 9 10 11
7 8 8 7 7 6 7 6 5 4 4 4 4 4 2 2 3 3 3 2 10 11 10 8 8 7 6 6 6 7 10 3 7 6 6 7 7 7 7 7 8 8 9
10 9 9 8 8 8 7 6 5 4 3 2 2 2 0 2 2 1 2 3 5 3 9 10 6 3 4 6 9 11 12 12 12 6 10 11 10 10 10 9 8 8 9
11 9 8 8 9 7 6 6 5 4 3 1 2 2 0 3 3 1 1 1 1 3 6 9 7 8 4 1 5 9 11 13 14 14 11 12 13 15 15 13 12 11 11
10 8 7 9 9 7 6 5 5 3 1 1 4 2 3 3 3 3 4 5 3 3 5 5 5 2 8 4 3 7 9 12 13 14 16 15 15 15 16 15 15 15 13
11 9 8 9 8 7 7 7 6 5 4 1 5 4 5 7 5 4 5 5 5 6 3 6 5 5 4 9 10 2 4 9 12 13 14 16 17 16 17 18 14 14 15
7 10 9 9 9 7 8 7 6 4 2 1 3 5 5 2 7 8 7 5 5 5 7 7 5 6 6 7 6 2 5 5 9 13 14 15 16 17 17 18 19 18 17
12 10 10 9 9 8 7 7 6 4 3 3 1 3 4 4 9 7 3 5 4 5 6 7 9 8 7 7 8 5 8 4 6 10 12 14 15 17 18 19 20 20 21
8 12 11 10 10 7 8 7 5 2 0 4 1 4 4 6 5 6 7 7 6 9 8 7 8 8 8 7 6 3 6 6 5 7 11 13 14 17 18 20 21 21 23
9 12 11 11 10 7 7 6 6 4 2 1 3 5 6 6 7 8 9 8 7 7 7 7 7 7 9 7 6 8 7 6 5 7 10 13 15 17 19 20 22 24 25
9 11 12 10 10 8 7 7 5 5 1 5 5 5 6 6 7 8 9 9 10 9 9 8 8 7 8 7 4 10 9 5 3 7 10 13 16 18 20 21 23 25 27
9 11 12 10 8 8 9 7 6 3 6 4 6 6 6 6 7 7 8 9 9 9 9 9 9 8 9 8 7 6 9 8 11 9 10 12 16 18 19 20 21 22 23
10 11 10 11 11 11 7 6 4 4 6 4 7 7 7 7 6 7 8 8 10 11 10 13 9 8 6 7 2 11 6 13 13 9 10 14 16 17 19 19 20 21 21
8 10 12 10 11 9 5 4 2 7 8 6 7 8 8 7 7 7 7 8 9 11 11 11 11 11 9 7 7 8 9 9 11 9 13 14 16 17 18 19 19 19 20
8 10 9 9 8 5 4 6 10 10 7 7 7 9 9 8 8 8 8 9 9 10 12 11 11 11 10 10 7 6 11 10 13 18 17 17 15 16 18 18 19 20 21
7 9 10 8 7 7 7 10 9 6 9 10 10 10 11 11 9 9 9 9 10 10 12 11 10 11 12 12 11 10 10 11 10 9 10 10 12 15 17 19 20 20 20
10 9 7 7 7 6 6 5 7 9 10 11 11 11 12 10 12 12 10 12 11 12 11 16 13 11 12 11 8 13 9 11 12 12 8 9 14 17 16 19 19 19 18
9 5 5 4 4 8 11 10 9 10 11 11 11 12 13 13 13 11 12 12 11 11 11 11 12 10 10 10 11 10 12 11 11 15 13 17 18 17 18 19 19 19 20
12 9 6 6 8 10 9 10 9 9 10 10 11 12 13 14 15 14 13 13 12 12 11 11 11 10 11 12 11 10 10 10 9 10 9 10 14 15 17 19 20 21 22
9 10 10 8 12 9 7 8 7 8 10 11 12 13 13 14 11 11 11 13 14 13 12 12 12 9 11 11 11 8 9 9 10 8 9 9 9 8 9 11 16 14 8
8 7 11 9 5 7 10 6 2 8 11 12 13 14 15 15 15 17 17 15 14 15 15 13 13 14 15 13 9 8 9 8 10 7 9 8 8 9 9 9 4 3 6
8 10 7 6 5 7 10 7 4 7 11 13 14 14 14 13 13 16 13 18 18 19 15 15 15 15 15 13 12 11 11 11 11 8 9 9 8 9 8 11 9 5 10
7 5 4 5 5 5 9 7 7 9 12 14 15 16 16 16 15 14 15 16 17 15 15 12 15 15 14 12 11 10 10 10 9 9 10 11 9 9 7 7 15 15 14
4 4 4 4 5 6 7 1 4 10 12 14 15 17 17 18 19 15 14 15 16 14 13 10 12 14 7 4 3 6 7 8 9 9 9 10 8 8 8 8 9 1 4
3 2 2 3 4 6 10 8 8 7 10 9 13 14 13 15 15 14 13 14 14 14 14 14 12 12 12 12 12 11 9 9 9 10 9 8 9 9 8 9 5 9 8
Wind_Direction
165 165 141 158 147 130 161 153 150 137 117 100 76 62 74 68 24 5 91 75 47 38 57 95 118 111 89 64 41 24 20 13 10 22 29 32 29 24 25 27 22 19 20
153 153 144 146 149 179 158 149 147 157 123 120 102 76 44 28 52 10 62 115 99 73 55 42 53 104 68 53 31 347 325 321 334 347 350 353 349 351 0 12 13 11 12
144 155 162 164 170 131 117 121 153 135 137 153 142 119 128 106 82 28 341 98 143 125 110 80 49 32 6 336 316 305 314 286 274 287 296 303 304 315 324 333 344 352 354
170 180 171 164 139 159 156 157 160 154 164 153 83 53 360 219 132 209 70 349 15 19 136 120 97 48 19 360 339 324 320 318 321 269 276 283 281 284 290 294 305 319 325
179 182 169 151 167 158 158 166 163 175 135 165 224 225 219 268 186 252 305 287 227 338 336 135 167 206 180 216 318 313 310 306 306 305 288 338 303 303 296 285 286 293 304
186 187 164 159 177 170 160 161 159 149 104 22 299 289 245 262 247 264 258 252 267 272 287 334 316 168 194 166 217 287 302 306 305 305 310 315 314 317 315 300 283 283 286
187 193 168 176 187 168 165 165 156 177 165 184 284 268 295 172 226 250 241 258 289 296 273 278 284 335 306 208 243 239 317 312 311 308 308 310 311 312 309 309 312 263 275
203 202 179 182 188 166 166 176 188 180 212 148 319 301 289 217 186 208 223 252 265 284 287 265 300 290 291 310 337 194 257 314 306 307 310 311 311 310 308 306 304 290 276
204 204 184 188 188 174 181 182 193 216 267 148 120 319 309 316 346 290 212 212 247 280 287 294 286 280 280 296 300 33 95 56 348 324 316 314 313 312 312 309 304 301 302
206 218 193 194 189 192 184 189 179 257 51 327 91 234 249 303 299 305 317 298 240 221 240 266 278 280 280 292 308 80 101 83 24 331 320 318 315 312 310 308 305 303 301
212 225 197 196 193 201 183 187 137 190 50 340 303 271 281 271 260 267 286 291 286 283 290 293 278 288 279 277 288 103 84 45 5 335 321 316 311 307 304 301 300 299 297
207 205 199 195 197 202 163 160 146 151 191 253 271 289 273 280 289 293 290 290 297 294 291 294 283 260 273 283 279 140 143 154 265 289 300 308 308 304 299 296 293 291 291
204 196 201 193 193 179 166 162 152 163 219 238 249 262 277 270 281 284 286 287 288 295 298 288 286 259 261 273 279 193 190 200 229 251 275 293 299 296 294 293 292 291 290
205 192 194 192 188 163 164 159 167 204 221 237 250 260 272 280 267 270 277 291 291 292 289 289 283 283 256 252 95 165 243 240 213 239 276 294 295 293 291 290 290 290 289
196 187 185 184 152 148 153 158 183 228 238 233 246 256 262 272 270 272 276 282 290 292 289 298 301 301 293 258 257 252 250 221 184 251 279 283 278 288 290 292 292 292 290
214 147 161 146 116 150 158 162 216 231 240 245 249 252 256 261 269 268 266 267 272 280 288 291 287 291 295 293 266 242 264 266 260 256 252 250 265 278 287 291 292 290 290
120 117 108 121 170 188 195 211 228 254 257 251 260 264 256 264 270 272 271 271 276 279 279 280 283 289 288 288 283 273 267 278 275 254 235 233 255 273 282 284 288 289 288
93 109 125 177 199 200 214 243 239 260 268 259 261 267 268 268 264 262 265 267 268 275 275 279 280 283 278 284 279 278 271 279 280 280 246 215 244 260 268 275 279 281 282
117 138 142 126 183 213 223 231 246 262 267 273 274 275 276 276 273 270 270 273 276 278 280 281 282 287 290 293 290 272 262 266 269 274 245 236 248 255 256 262 267 266 270
128 145 152 177 218 230 239 244 268 272 269 272 280 280 280 279 277 277 275 276 275 273 277 283 284 294 300 282 279 275 270 260 278 288 301 281 270 253 254 257 253 257 258
142 163 171 208 223 231 250 267 271 282 287 287 282 278 275 276 276 275 279 279 288 293 293 293 291 277 268 271 269 281 279 285 279 301 292 280 289 296 294 275 256 255 275
162 176 203 203 230 259 111 110 298 286 291 289 286 285 286 281 265 239 237 240 252 265 269 278 285 279 274 274 285 290 283 288 289 284 285 287 298 301 292 291 301 253 263
183 207 213 239 251 253 156 159 171 273 280 283 287 288 287 285 290 288 267 230 230 233 239 263 272 272 279 279 279 286 284 281 285 302 311 298 295 279 292 296 303 252 249
205 224 218 223 240 264 153 185 204 269 279 282 285 287 288 289 288 292 290 288 285 279 236 229 251 264 268 283 280 275 287 290 293 292 289 275 276 283 292 300 304 296 266
193 202 221 237 257 274 154 231 303 294 296 297 299 299 299 300 303 325 307 287 287 285 281 221 235 249 251 252 283 293 278 279 270 266 263 271 286 292 288 303 284 51 262
206 226 265 278 2 298 80 58 9 318 305 301 300 303 305 303 303 303 301 297 274 277 278 277 249 236 237 239 210 239 250 250 259 269 270 275 288 294 301 292 298 308 300